sat.trackr.live / text

‹ back to catalog

STARLINK-36791

NORAD 68111 · 2026-044L

PAYLOAD ACTIVE UNKNOWN

§ Identity

Operator
Country
US
Launch date
2026-03-08
Launch site
AFWTR
Launch vehicle
Mass (kg)
RCS (m²)

Purposes: comms

External: N2YO · Heavens-Above · Gunter

§ Orbital elements

Epoch: 2026-09-19T16:43:38.438688Z

Period
93.91 min
Inclination
97.2834°
Eccentricity
0.0002319
Mean motion
15.33463395 rev/d
Perigee alt
463.9 km
Apogee alt
467.1 km
Semi-major
6,843.6 km
B*
6.4919e-4
RAAN
221.6433°
Arg perigee
89.6129°
Mean anomaly
270.5380°
Rev number
3,131

§ Raw data

STARLINK-367911 68111U 26044L   26262.69697267  .00020955  00000+0  64919-3 0  99952 68111  97.2834 221.6433 0002319  89.6129 270.5380 15.33463395 31318

JSON: /api/v1/satellites/68111 · /tle

For live sub-satellite position, see the globe view (requires WebGL).

§ Visibility from observer

Set your observer location to see the next 7 days of passes ≥ 10°. The values pass through the URL so the page stays shareable.

No JS? Fill the form by hand. The geolocation button needs JavaScript.